Theta_e
309 310 318 324 332 332 337 336 330 332 331 322 321 320 321 322 333 328 329 335 332 326 326 318 322 323 321 320 321 321 323 322 322 324 325 327 329 330 331 331 332 332 331 331 331 331 329 329 329
308 322 326 329 335 340 338 335 335 331 329 320 320 321 323 324 328 331 334 335 332 326 330 318 320 323 322 321 321 322 324 324 324 325 329 329 329 330 332 332 332 333 333 334 334 333 332 330 330
315 321 329 336 336 340 338 334 333 330 326 324 321 321 323 326 328 329 334 335 332 327 330 324 321 324 322 322 321 323 326 327 330 334 333 333 332 333 334 333 333 333 333 335 334 334 334 333 331
324 327 328 337 341 336 334 334 333 326 323 319 321 325 323 324 327 330 333 335 333 330 332 327 323 323 322 322 322 324 327 328 329 335 336 336 337 336 334 333 333 334 334 333 332 334 336 335 334
331 328 337 337 338 335 331 330 328 324 320 320 322 324 324 324 327 330 332 335 335 334 333 328 324 323 322 322 323 325 326 326 329 335 336 338 336 336 335 335 332 333 333 332 332 332 332 335 335
329 325 332 335 332 329 326 326 325 323 322 320 324 323 323 324 327 330 331 332 333 333 332 327 324 323 324 324 325 326 325 324 325 333 335 337 337 335 334 334 334 333 333 331 330 331 331 332 334
330 327 330 329 330 329 328 324 323 323 322 323 322 325 322 323 326 328 331 331 333 332 330 327 325 325 326 326 327 326 323 322 321 324 327 329 327 325 328 329 330 331 331 331 331 331 331 331 333
326 325 330 328 328 327 325 323 321 323 325 322 324 324 323 323 326 330 331 332 332 330 329 327 327 328 328 329 329 327 323 321 321 323 324 323 325 324 326 327 327 328 328 328 329 330 330 331 331
322 328 329 327 326 325 323 326 323 324 323 321 322 322 323 325 327 334 335 334 332 332 330 329 329 330 329 330 330 327 323 322 323 325 324 326 325 324 323 323 322 324 328 329 329 328 328 329 331
325 328 327 325 323 325 324 327 326 325 326 321 320 320 322 324 325 327 329 331 334 334 333 332 332 332 330 330 329 326 324 324 324 325 325 326 326 324 323 323 322 327 328 329 330 331 330 330 330
325 329 327 326 325 325 327 326 327 327 328 326 324 323 321 321 321 322 326 330 332 332 334 334 335 333 331 329 326 327 325 324 326 326 327 327 326 324 323 324 323 323 323 324 324 323 327 329 330
327 326 327 326 325 325 326 326 328 327 327 326 324 322 322 320 319 320 322 326 329 330 332 335 338 333 330 327 326 324 324 325 326 327 327 328 326 325 324 325 323 323 323 324 324 324 325 328 329
325 326 326 325 324 325 325 326 327 327 327 325 323 320 318 320 320 321 322 323 324 326 329 333 333 332 329 327 325 324 324 326 327 327 327 326 326 324 325 325 325 323 325 325 325 324 324 327 328
324 325 325 325 326 326 327 327 328 328 327 326 324 321 319 321 320 320 320 321 322 322 323 326 331 330 328 324 324 322 325 326 326 327 327 327 327 326 326 325 326 324 323 325 324 323 324 325 326
316 318 317 318 319 321 323 325 326 326 325 322 321 321 318 320 321 319 321 321 322 320 320 323 329 327 323 324 321 324 326 327 328 328 328 328 328 328 327 325 326 324 323 324 324 323 324 324 326
317 317 318 317 320 320 322 324 323 323 323 322 321 321 319 318 320 321 321 321 320 320 320 323 326 323 324 323 323 326 327 328 328 328 329 329 329 328 327 326 326 324 323 323 323 323 323 324 325
314 316 316 315 317 318 322 321 322 321 322 321 321 320 320 318 317 320 321 320 319 320 320 324 323 324 324 323 325 327 328 328 328 329 329 329 329 328 328 327 326 324 322 324 323 323 322 323 324
315 315 315 316 317 318 318 320 321 321 321 321 320 319 319 318 318 318 319 318 319 320 321 322 324 324 325 325 326 328 327 328 329 329 329 330 330 329 328 326 324 321 323 323 323 322 322 323 323
314 313 313 314 317 318 318 319 320 321 320 318 319 320 319 319 316 316 317 318 320 321 322 324 325 326 326 326 328 327 329 328 328 328 329 329 329 328 327 324 321 320 324 323 322 322 321 323 323
315 314 314 316 319 319 319 320 319 319 320 319 320 320 320 318 319 318 316 318 320 322 324 325 325 326 326 328 327 328 329 328 328 328 329 329 328 328 327 325 322 325 324 323 322 321 322 322 323
315 316 316 316 319 319 320 320 320 320 320 319 318 319 318 317 319 319 316 318 320 322 324 325 326 327 327 328 326 328 328 328 328 327 328 328 327 326 326 326 324 325 324 322 322 322 322 322 323
318 317 317 319 320 319 319 323 320 319 321 319 318 317 318 318 320 318 316 318 321 322 325 326 326 327 328 327 327 327 328 328 327 327 327 327 325 325 325 325 325 325 323 322 321 322 323 323 324
319 318 318 320 320 319 320 320 320 319 320 320 319 318 316 316 320 318 317 320 322 324 326 326 327 327 327 327 328 329 329 327 327 326 326 326 325 325 325 324 324 323 323 323 322 322 323 324 325
316 316 317 317 317 320 319 320 320 320 321 320 319 319 320 318 319 317 318 321 323 325 326 327 327 328 327 328 329 329 327 326 326 326 326 325 325 326 325 324 324 324 325 324 323 322 323 324 325
315 313 315 318 319 321 319 320 319 319 319 319 320 318 319 320 320 319 320 319 320 323 326 327 328 326 327 328 329 328 327 325 325 325 326 325 325 326 325 324 324 325 325 325 325 324 324 324 325
316 315 315 318 322 324 320 324 323 320 320 319 319 318 319 321 320 320 320 319 320 323 326 326 326 326 328 329 329 327 327 324 324 324 326 324 325 325 325 324 324 325 325 326 326 325 325 325 325
315 314 315 319 320 321 321 321 321 320 320 319 319 320 320 321 320 320 319 319 320 323 325 327 325 325 328 327 328 327 327 324 324 324 324 324 324 325 325 324 324 325 326 325 327 326 327 326 325
312 313 316 315 320 323 321 322 323 322 320 322 322 320 320 320 321 320 319 319 321 323 326 325 325 325 325 325 328 327 327 325 324 324 323 324 323 324 324 323 324 324 326 326 327 328 328 328 329
311 313 313 315 315 321 322 322 318 321 319 321 320 319 320 322 322 321 319 319 321 323 325 325 325 324 323 327 327 327 328 327 324 324 322 323 323 323 323 323 323 324 327 328 327 328 327 327 328
313 313 313 316 318 317 320 322 319 318 317 317 319 320 320 321 321 321 319 318 319 322 323 323 324 325 324 327 326 327 328 327 326 324 323 324 323 323 323 325 325 326 328 328 328 328 327 327 327
Wind_Speed
12 14 11 3 3 4 4 6 3 5 4 4 3 5 8 5 6 5 6 24 16 34 27 38 32 27 24 22 19 17 16 16 15 13 12 11 11 11 10 10 9 9 10 9 7 7 8 8 8
18 14 4 3 3 1 5 4 6 6 5 3 1 1 1 5 3 3 6 26 17 34 28 38 34 29 26 24 21 19 18 18 17 16 15 14 14 14 13 12 12 12 12 11 10 10 9 10 9
12 5 3 3 3 5 5 5 4 8 9 7 4 3 3 4 3 5 8 29 23 31 30 34 35 30 27 25 22 21 19 18 18 17 16 16 16 16 18 13 14 15 15 14 12 12 12 11 11
3 4 4 3 7 7 6 7 4 9 9 5 2 3 3 7 4 8 15 30 27 29 33 32 35 31 28 26 23 20 19 18 18 17 17 18 18 18 17 16 18 18 17 16 15 15 14 13 12
3 3 1 2 6 6 7 8 4 8 5 4 1 4 4 3 9 12 19 32 31 31 34 33 33 31 29 26 23 21 18 17 16 17 17 18 17 17 18 18 20 18 18 18 17 17 18 17 15
3 3 1 4 5 5 6 10 3 4 3 5 3 3 6 4 11 16 21 30 30 31 33 33 33 30 28 26 23 20 17 15 14 14 16 16 15 16 18 18 17 18 18 18 19 19 20 20 17
5 4 4 4 6 6 6 5 5 2 4 5 2 3 5 5 13 17 25 28 30 31 32 33 32 30 28 26 23 20 17 15 12 14 15 14 14 16 16 17 17 18 18 19 20 21 21 19 16
5 4 3 6 4 8 6 3 5 3 6 0 3 4 7 5 16 23 28 28 29 30 32 34 33 31 29 27 24 20 17 15 13 13 12 12 12 13 13 13 13 14 17 19 20 22 22 21 17
4 2 6 8 7 8 2 3 3 1 4 2 5 5 7 6 17 24 26 27 27 28 31 33 33 31 29 27 23 19 17 15 15 13 12 12 11 11 11 12 12 11 11 13 16 19 22 22 19
5 6 11 12 9 7 3 2 5 4 9 6 7 8 12 9 21 17 15 22 30 32 33 34 34 32 29 26 22 19 16 15 16 16 14 14 13 12 12 12 11 12 13 13 16 15 18 18 20
7 15 20 15 15 1 6 8 1 7 15 14 9 14 5 7 11 17 22 24 37 39 36 37 35 32 29 26 22 18 15 16 17 17 17 17 16 14 13 13 13 13 13 13 13 13 12 17 19
4 13 20 19 14 5 8 5 15 14 17 18 15 11 5 9 12 16 20 28 31 36 40 37 34 31 28 23 21 16 16 16 18 18 18 19 18 17 16 14 12 12 10 11 10 10 10 14 16
9 13 10 11 11 14 8 12 17 20 24 15 13 10 12 11 15 25 34 31 28 35 36 35 34 31 27 22 19 16 14 17 16 16 16 18 18 17 16 15 13 13 12 11 10 9 9 11 14
6 15 18 9 20 20 19 15 13 25 18 14 14 14 11 12 18 19 19 29 33 36 35 31 31 29 25 22 18 14 14 14 14 15 16 17 17 17 17 16 15 13 12 11 10 10 9 11 13
5 7 8 12 15 9 10 13 21 28 9 11 14 14 12 13 13 17 36 34 39 35 29 30 32 29 24 20 15 14 14 13 16 16 16 17 17 17 17 17 16 14 11 11 11 10 9 10 12
3 2 3 6 4 6 11 11 22 15 9 17 15 13 10 13 16 30 32 29 26 29 27 31 32 28 22 17 15 15 13 12 16 16 16 16 16 16 16 15 15 13 11 11 12 10 10 10 11
3 11 11 8 7 4 8 13 16 5 5 11 12 12 11 13 11 25 29 31 28 29 29 35 32 27 22 17 16 13 11 11 12 12 13 13 14 15 15 14 13 12 11 11 11 10 11 11 11
6 5 6 10 2 4 9 15 18 23 9 12 11 11 11 11 19 15 22 22 25 26 33 36 30 25 21 16 14 12 10 9 9 10 10 10 12 13 14 13 12 12 11 10 11 11 10 10 11
6 14 14 2 4 6 9 9 14 18 7 10 14 16 14 13 5 7 19 23 26 30 36 35 29 24 21 18 13 10 6 7 8 8 8 8 9 10 12 11 11 11 12 10 11 11 13 11 8
9 12 17 11 3 7 10 13 15 16 16 10 15 19 15 6 3 5 15 25 34 38 39 32 27 24 21 17 11 4 4 5 6 7 6 7 6 7 10 9 9 9 11 10 10 12 12 9 10
14 18 17 11 7 6 7 12 11 13 9 7 10 12 9 10 10 7 9 16 24 31 36 31 26 23 19 12 7 4 3 4 6 5 4 5 4 4 7 9 9 8 9 9 11 14 12 8 9
19 16 15 12 4 9 5 6 10 9 17 9 11 9 10 7 2 6 8 11 22 27 33 28 24 21 16 11 6 4 2 2 3 2 3 2 1 1 3 7 8 8 8 8 11 13 11 11 9
13 7 7 7 7 2 5 5 6 5 9 14 11 11 10 5 8 8 9 17 24 33 30 26 23 19 15 11 6 4 1 3 2 1 1 3 2 3 3 4 6 6 7 7 10 12 13 11 12
5 3 4 4 1 9 14 7 5 6 11 6 6 5 4 6 8 9 12 22 25 29 26 24 21 18 14 11 7 3 2 3 3 2 3 3 4 5 4 6 5 4 4 6 9 11 13 12 8
7 7 1 4 1 5 6 6 14 10 9 9 12 8 3 3 11 12 16 12 19 24 25 23 21 16 13 10 7 4 3 3 0 2 3 2 5 7 7 7 5 3 6 6 6 8 11 11 10
15 10 6 6 3 5 6 8 9 13 14 10 10 4 8 7 9 12 13 12 19 24 25 22 20 15 14 9 7 5 4 2 0 1 1 2 5 10 9 7 5 4 5 4 6 6 10 7 4
12 10 12 1 2 1 4 7 8 6 9 6 1 5 7 7 8 12 11 14 20 25 24 23 18 14 13 10 10 6 5 3 1 1 3 6 8 10 8 6 4 4 3 4 5 6 8 7 6
9 11 7 7 6 4 5 5 6 2 6 4 5 8 7 7 8 10 9 13 21 26 24 21 17 14 12 10 9 8 6 4 4 4 6 8 8 9 7 5 4 4 4 4 5 7 6 6 8
5 7 3 8 5 5 1 6 7 8 9 9 9 9 9 13 11 12 9 15 23 24 23 19 15 14 11 11 9 8 7 6 6 5 7 7 6 8 7 4 4 3 4 6 6 7 6 9 11
22 15 8 7 5 4 4 6 3 9 7 7 7 7 7 6 9 10 11 13 18 22 22 19 15 13 12 12 9 7 8 7 7 6 8 5 6 7 6 5 6 6 7 7 7 9 10 11 10
Wind_Direction
150 138 130 94 37 63 259 256 297 277 293 320 120 158 190 165 166 210 312 180 180 180 185 192 197 196 199 202 207 209 208 209 212 215 219 224 229 232 236 241 252 262 268 274 269 263 254 249 246
147 138 96 90 97 340 262 246 233 229 240 292 242 207 237 250 208 263 137 174 183 181 183 192 198 199 202 205 209 213 214 216 219 221 220 222 226 235 237 240 249 254 259 262 266 263 259 252 248
141 119 90 111 149 208 238 228 248 301 283 220 212 220 174 232 223 202 181 179 183 186 192 195 198 199 203 206 211 212 217 221 221 219 222 228 232 232 233 239 251 254 256 255 260 261 260 254 247
161 28 39 109 239 259 237 272 301 312 326 166 154 248 270 224 183 211 183 181 183 188 195 197 199 199 203 206 211 214 218 224 230 225 231 240 236 240 245 243 246 249 254 261 261 260 255 253 249
74 51 72 252 248 257 257 265 271 292 281 289 217 258 248 234 230 196 183 181 187 190 196 197 198 204 203 207 211 215 220 228 237 231 235 243 251 249 248 249 250 248 249 255 260 261 261 256 248
62 94 56 244 232 245 259 253 276 237 265 274 202 159 256 294 198 190 188 186 189 191 194 197 199 205 207 207 209 213 218 223 235 238 242 247 249 256 257 257 256 254 254 258 260 258 260 261 250
129 107 231 254 262 283 229 183 190 210 307 301 149 224 268 274 214 199 189 191 191 195 195 197 201 204 211 211 208 211 212 218 230 240 244 247 252 259 262 263 260 259 258 257 258 258 258 259 250
132 126 251 243 215 262 213 195 161 173 280 37 145 259 274 259 203 191 188 192 196 198 200 201 203 204 208 211 210 210 211 216 229 236 236 243 259 262 270 267 262 258 256 255 257 260 259 255 250
114 149 240 237 184 243 157 322 290 49 243 307 215 232 251 304 192 182 181 194 199 203 206 205 204 204 206 209 210 212 214 224 229 233 236 250 255 275 271 265 269 269 262 255 254 255 254 254 250
168 196 227 221 214 246 292 133 325 337 301 264 272 266 264 203 182 174 190 197 204 207 209 208 206 204 201 204 207 213 217 232 231 231 243 255 260 276 265 263 263 262 262 265 260 270 247 247 241
199 225 229 261 244 234 279 305 276 281 286 282 271 287 270 181 201 195 202 205 207 211 212 209 206 204 201 200 205 213 223 235 235 237 247 249 249 264 253 259 254 259 255 265 267 271 254 240 237
219 232 237 249 261 268 258 293 282 284 267 268 280 265 230 198 207 213 205 210 211 212 213 209 203 202 202 202 204 215 233 237 239 245 251 245 247 256 249 252 256 255 252 259 265 267 256 238 234
237 243 245 252 270 263 266 257 266 278 275 275 270 272 236 221 216 219 212 211 210 213 212 207 201 201 199 201 204 218 227 234 242 246 243 241 250 249 247 252 253 249 256 255 255 259 253 239 230
198 236 253 264 258 262 268 278 276 268 271 274 274 270 254 219 219 224 215 213 214 216 215 206 201 197 196 197 209 214 222 233 239 243 245 246 251 249 250 254 251 248 253 250 257 265 256 241 227
223 239 260 250 254 254 264 270 257 265 275 264 267 269 264 227 225 217 223 212 214 214 208 199 194 189 189 199 204 208 219 232 243 250 252 250 250 250 253 256 249 244 250 247 251 251 249 241 226
194 207 242 255 205 255 158 260 271 268 259 263 266 268 256 245 222 230 232 219 212 206 197 190 183 182 190 195 198 210 224 243 256 259 259 259 254 248 246 247 241 243 250 246 242 253 248 240 227
243 251 256 287 227 231 178 275 270 257 232 264 268 265 262 261 240 233 228 217 203 198 187 182 180 182 189 191 202 215 233 251 267 268 267 261 251 246 242 245 245 244 250 242 245 250 242 237 227
204 247 239 236 276 209 260 258 274 279 240 255 265 266 257 255 251 246 214 204 189 185 181 177 178 184 188 195 208 222 242 254 279 286 278 264 246 244 244 242 242 241 244 238 234 233 226 226 223
205 230 244 251 199 240 242 265 268 280 255 269 275 276 275 265 290 189 177 175 172 174 173 175 177 185 189 196 204 224 238 259 291 293 272 259 252 245 241 241 239 230 237 239 235 225 210 206 186
212 239 254 268 221 237 272 272 273 277 274 248 266 273 270 247 218 150 157 164 170 171 174 173 179 185 189 194 202 217 255 274 289 297 280 257 265 247 240 233 226 232 225 231 222 199 187 196 188
215 224 242 249 315 254 309 290 270 280 277 259 251 246 267 234 205 182 162 161 156 162 170 169 176 183 186 191 196 201 235 278 289 300 296 272 264 260 243 227 222 225 228 225 207 193 190 161 179
221 219 242 264 278 269 142 280 301 301 299 288 281 293 273 243 293 126 141 144 156 159 167 169 174 179 183 183 186 196 221 284 272 299 296 244 177 185 217 212 219 230 217 214 200 192 191 187 166
233 204 222 233 229 239 256 277 269 273 282 282 276 270 266 228 163 161 150 146 149 163 166 169 172 177 178 177 189 194 256 265 255 252 237 190 170 171 195 198 189 192 209 213 197 199 196 194 189
137 202 41 36 65 257 261 206 221 228 237 261 266 270 312 132 125 113 122 140 150 164 164 169 172 176 180 185 194 202 249 233 226 252 255 248 219 188 170 162 160 168 199 190 194 204 207 208 207
138 100 275 333 270 230 192 183 249 255 231 226 257 272 114 203 127 139 150 146 145 162 166 170 175 175 181 193 201 204 231 218 285 282 260 271 183 172 150 150 142 137 134 147 166 194 200 210 220
196 167 154 203 222 255 161 205 248 225 233 238 249 205 144 171 141 153 151 147 155 164 169 172 174 174 180 189 195 197 198 170 38 293 227 154 166 153 139 143 123 89 84 149 158 183 196 197 217
198 190 179 14 188 313 224 279 308 226 255 264 166 151 154 161 156 150 153 150 156 166 171 172 176 180 184 193 190 198 183 168 165 114 121 132 144 150 147 145 122 83 87 93 153 166 186 193 184
158 142 178 204 199 219 271 268 232 229 241 291 230 198 162 150 153 151 151 152 163 170 171 175 181 177 185 193 196 200 176 178 164 127 118 141 149 158 165 168 137 91 102 114 134 152 167 165 158
166 172 158 170 162 168 275 262 215 230 227 234 222 173 180 159 164 159 150 162 166 170 173 178 179 179 183 187 192 199 177 185 169 141 135 151 160 167 176 170 152 140 126 123 127 118 137 148 148
200 193 159 190 195 208 163 267 212 229 256 234 225 153 143 168 153 153 154 149 160 170 178 184 182 185 191 189 188 191 176 181 172 159 155 144 159 172 172 156 145 145 137 131 127 118 109 127 136